owner,sensor,date,latitude,longitude,vertical_datum,mass_concentration_of_oxygen_in_sea_water,qcFlag 
SCCF RECON,ioos:station:SCCF:18:1,2017-06-01T00:00:00Z,26.6955,-81.8138,1.586,4.97,1111122 
SCCF RECON,ioos:station:SCCF:18:1,2017-06-01T01:00:00Z,26.6955,-81.8138,1.58,5.49,1111122 
SCCF RECON,ioos:station:SCCF:18:1,2017-06-01T02:00:00Z,26.6955,-81.8138,1.581,5.34,1111122 
SCCF RECON,ioos:station:SCCF:18:1,2017-06-01T03:00:00Z,26.6955,-81.8138,1.528,5.33,1111122 
SCCF RECON,ioos:station:SCCF:18:1,2017-06-01T04:00:00Z,26.6955,-81.8138,1.479,5.04,1111122 
SCCF RECON,ioos:station:SCCF:18:1,2017-06-01T05:00:00Z,26.6955,-81.8138,1.415,4.7,1111122 
SCCF RECON,ioos:station:SCCF:18:1,2017-06-01T06:00:00Z,26.6955,-81.8138,1.363,4.32,1111122 
SCCF RECON,ioos:station:SCCF:18:1,2017-06-01T07:00:00Z,26.6955,-81.8138,1.305,4.1,1111122 
SCCF RECON,ioos:station:SCCF:18:1,2017-06-01T08:00:00Z,26.6955,-81.8138,1.251,4.16,1111122 
SCCF RECON,ioos:station:SCCF:18:1,2017-06-01T09:00:00Z,26.6955,-81.8138,1.207,4.01,1111122 
SCCF RECON,ioos:station:SCCF:18:1,2017-06-01T10:00:00Z,26.6955,-81.8138,1.194,3.98,1111122 
SCCF RECON,ioos:station:SCCF:18:1,2017-06-01T11:00:00Z,26.6955,-81.8138,1.247,4.1,1111122 
SCCF RECON,ioos:station:SCCF:18:1,2017-06-01T12:00:00Z,26.6955,-81.8138,1.321,3.65,1111122 
SCCF RECON,ioos:station:SCCF:18:1,2017-06-01T13:00:00Z,26.6955,-81.8138,1.396,3.8,1111122 
SCCF RECON,ioos:station:SCCF:18:1,2017-06-01T14:00:00Z,26.6955,-81.8138,1.432,4.14,1111122 
SCCF RECON,ioos:station:SCCF:18:1,2017-06-01T15:00:00Z,26.6955,-81.8138,1.469,4.28,1111122 
SCCF RECON,ioos:station:SCCF:18:1,2017-06-01T16:00:00Z,26.6955,-81.8138,1.487,4.4,1111122 
SCCF RECON,ioos:station:SCCF:18:1,2017-06-01T17:00:00Z,26.6955,-81.8138,1.463,4.48,1111122 
SCCF RECON,ioos:station:SCCF:18:1,2017-06-01T18:00:00Z,26.6955,-81.8138,1.44,4.61,1111122 
SCCF RECON,ioos:station:SCCF:18:1,2017-06-01T19:00:00Z,26.6955,-81.8138,1.423,4.61,1111122 
SCCF RECON,ioos:station:SCCF:18:1,2017-06-01T20:00:00Z,26.6955,-81.8138,1.366,5.29,1111122 
SCCF RECON,ioos:station:SCCF:18:1,2017-06-01T21:00:00Z,26.6955,-81.8138,1.313,4.73,1111122 
SCCF RECON,ioos:station:SCCF:18:1,2017-06-01T22:00:00Z,26.6955,-81.8138,1.313,4.75,1111122 
SCCF RECON,ioos:station:SCCF:18:1,2017-06-01T23:00:00Z,26.6955,-81.8138,1.387,5.4,1111122 
SCCF RECON,ioos:station:SCCF:18:1,2017-06-02T00:00:00Z,26.6955,-81.8138,1.433,4.75,1111122 
SCCF RECON,ioos:station:SCCF:18:1,2017-06-02T01:00:00Z,26.6955,-81.8138,1.46,4.77,1111122 
SCCF RECON,ioos:station:SCCF:18:1,2017-06-02T02:00:00Z,26.6955,-81.8138,1.483,4.68,1111122 
SCCF RECON,ioos:station:SCCF:18:1,2017-06-02T03:00:00Z,26.6955,-81.8138,1.513,4.88,1111122 
SCCF RECON,ioos:station:SCCF:18:1,2017-06-02T04:00:00Z,26.6955,-81.8138,1.503,4.82,1111122 
SCCF RECON,ioos:station:SCCF:18:1,2017-06-02T05:00:00Z,26.6955,-81.8138,1.431,4.95,1111122 
SCCF RECON,ioos:station:SCCF:18:1,2017-06-02T06:00:00Z,26.6955,-81.8138,1.367,4.3,1111122 
SCCF RECON,ioos:station:SCCF:18:1,2017-06-02T07:00:00Z,26.6955,-81.8138,1.314,3.94,1111122 
SCCF RECON,ioos:station:SCCF:18:1,2017-06-02T08:00:00Z,26.6955,-81.8138,1.281,4.48,1111122 
SCCF RECON,ioos:station:SCCF:18:1,2017-06-02T09:00:00Z,26.6955,-81.8138,1.232,3.78,1111122 
SCCF RECON,ioos:station:SCCF:18:1,2017-06-02T10:00:00Z,26.6955,-81.8138,1.19,3.77,1111122 
SCCF RECON,ioos:station:SCCF:18:1,2017-06-02T11:00:00Z,26.6955,-81.8138,1.207,3.62,1111122 
SCCF RECON,ioos:station:SCCF:18:1,2017-06-02T12:00:00Z,26.6955,-81.8138,1.283,4.03,1111122 
SCCF RECON,ioos:station:SCCF:18:1,2017-06-02T13:00:00Z,26.6955,-81.8138,1.37,3.52,1111122 
SCCF RECON,ioos:station:SCCF:18:1,2017-06-02T14:00:00Z,26.6955,-81.8138,1.43,3.63,1111122 
SCCF RECON,ioos:station:SCCF:18:1,2017-06-02T15:00:00Z,26.6955,-81.8138,1.473,3.54,1111122 
SCCF RECON,ioos:station:SCCF:18:1,2017-06-02T16:00:00Z,26.6955,-81.8138,1.52,3.81,1111122 
SCCF RECON,ioos:station:SCCF:18:1,2017-06-02T17:00:00Z,26.6955,-81.8138,1.548,4.09,1111122 
SCCF RECON,ioos:station:SCCF:18:1,2017-06-02T18:00:00Z,26.6955,-81.8138,1.527,4.27,1111122 
SCCF RECON,ioos:station:SCCF:18:1,2017-06-02T19:00:00Z,26.6955,-81.8138,1.469,4.17,1111122 
SCCF RECON,ioos:station:SCCF:18:1,2017-06-02T20:00:00Z,26.6955,-81.8138,1.45,3.73,1111122 
SCCF RECON,ioos:station:SCCF:18:1,2017-06-02T21:00:00Z,26.6955,-81.8138,1.384,4.56,1111122 
SCCF RECON,ioos:station:SCCF:18:1,2017-06-02T22:00:00Z,26.6955,-81.8138,1.302,4.28,1111122 
SCCF RECON,ioos:station:SCCF:18:1,2017-06-02T23:00:00Z,26.6955,-81.8138,1.289,3.77,1111122 
SCCF RECON,ioos:station:SCCF:18:1,2017-06-03T00:00:00Z,26.6955,-81.8138,1.305,3.78,1111122 
SCCF RECON,ioos:station:SCCF:18:1,2017-06-03T01:00:00Z,26.6955,-81.8138,1.322,3.8,1111122 
SCCF RECON,ioos:station:SCCF:18:1,2017-06-03T02:00:00Z,26.6955,-81.8138,1.375,3.93,1111122 
SCCF RECON,ioos:station:SCCF:18:1,2017-06-03T03:00:00Z,26.6955,-81.8138,1.427,4.06,1111122 
SCCF RECON,ioos:station:SCCF:18:1,2017-06-03T04:00:00Z,26.6955,-81.8138,1.451,3.88,1111122 
SCCF RECON,ioos:station:SCCF:18:1,2017-06-03T05:00:00Z,26.6955,-81.8138,1.44,3.89,1111122 
SCCF RECON,ioos:station:SCCF:18:1,2017-06-03T06:00:00Z,26.6955,-81.8138,1.385,4.37,1111122 
SCCF RECON,ioos:station:SCCF:18:1,2017-06-03T07:00:00Z,26.6955,-81.8138,1.325,3.91,1111122 
SCCF RECON,ioos:station:SCCF:18:1,2017-06-03T08:00:00Z,26.6955,-81.8138,1.285,3.91,1111122 
SCCF RECON,ioos:station:SCCF:18:1,2017-06-03T09:00:00Z,26.6955,-81.8138,1.254,4.08,1111122 
SCCF RECON,ioos:station:SCCF:18:1,2017-06-03T10:00:00Z,26.6955,-81.8138,1.219,3.64,1111122 
SCCF RECON,ioos:station:SCCF:18:1,2017-06-03T11:00:00Z,26.6955,-81.8138,1.204,3.75,1111122 
SCCF RECON,ioos:station:SCCF:18:1,2017-06-03T12:00:00Z,26.6955,-81.8138,1.257,4.01,1111122 
SCCF RECON,ioos:station:SCCF:18:1,2017-06-03T13:00:00Z,26.6955,-81.8138,1.337,3.38,1111122 
SCCF RECON,ioos:station:SCCF:18:1,2017-06-03T14:00:00Z,26.6955,-81.8138,1.414,3.57,1111122 
SCCF RECON,ioos:station:SCCF:18:1,2017-06-03T15:00:00Z,26.6955,-81.8138,1.458,3.57,1111122 
SCCF RECON,ioos:station:SCCF:18:1,2017-06-03T16:00:00Z,26.6955,-81.8138,1.507,3.66,1111122 
SCCF RECON,ioos:station:SCCF:18:1,2017-06-03T17:00:00Z,26.6955,-81.8138,1.552,4.03,1111122 
SCCF RECON,ioos:station:SCCF:18:1,2017-06-03T18:00:00Z,26.6955,-81.8138,1.557,4.52,1111122 
SCCF RECON,ioos:station:SCCF:18:1,2017-06-03T19:00:00Z,26.6955,-81.8138,1.488,5.01,1111122 
SCCF RECON,ioos:station:SCCF:18:1,2017-06-03T20:00:00Z,26.6955,-81.8138,1.405,5.02,1111122 
SCCF RECON,ioos:station:SCCF:18:1,2017-06-03T21:00:00Z,26.6955,-81.8138,1.36,4.6,1111122 
SCCF RECON,ioos:station:SCCF:18:1,2017-06-03T22:00:00Z,26.6955,-81.8138,1.32,4.75,1111122 
SCCF RECON,ioos:station:SCCF:18:1,2017-06-03T23:00:00Z,26.6955,-81.8138,1.288,4.86,1111122 
SCCF RECON,ioos:station:SCCF:18:1,2017-06-04T00:00:00Z,26.6955,-81.8138,1.265,4.53,1111122 
SCCF RECON,ioos:station:SCCF:18:1,2017-06-04T01:00:00Z,26.6955,-81.8138,1.273,4.69,1111122 
SCCF RECON,ioos:station:SCCF:18:1,2017-06-04T02:00:00Z,26.6955,-81.8138,1.307,4.41,1111122 
SCCF RECON,ioos:station:SCCF:18:1,2017-06-04T03:00:00Z,26.6955,-81.8138,1.362,3.95,1111122 
SCCF RECON,ioos:station:SCCF:18:1,2017-06-04T04:00:00Z,26.6955,-81.8138,1.402,4.09,1111122 
SCCF RECON,ioos:station:SCCF:18:1,2017-06-04T05:00:00Z,26.6955,-81.8138,1.427,4.32,1111122 
SCCF RECON,ioos:station:SCCF:18:1,2017-06-04T06:00:00Z,26.6955,-81.8138,1.44,4.43,1111122 
SCCF RECON,ioos:station:SCCF:18:1,2017-06-04T07:00:00Z,26.6955,-81.8138,1.429,4.17,1111122 
SCCF RECON,ioos:station:SCCF:18:1,2017-06-04T08:00:00Z,26.6955,-81.8138,1.374,4.05,1111122 
SCCF RECON,ioos:station:SCCF:18:1,2017-06-04T09:00:00Z,26.6955,-81.8138,1.32,4.0,1111122 
SCCF RECON,ioos:station:SCCF:18:1,2017-06-04T10:00:00Z,26.6955,-81.8138,1.29,4.0,1111122 
SCCF RECON,ioos:station:SCCF:18:1,2017-06-04T11:00:00Z,26.6955,-81.8138,1.264,3.56,1111122 
SCCF RECON,ioos:station:SCCF:18:1,2017-06-04T12:00:00Z,26.6955,-81.8138,1.257,3.75,1111122 
SCCF RECON,ioos:station:SCCF:18:1,2017-06-04T13:00:00Z,26.6955,-81.8138,1.31,3.91,1111122 
SCCF RECON,ioos:station:SCCF:18:1,2017-06-04T14:00:00Z,26.6955,-81.8138,1.395,3.44,1111122 
SCCF RECON,ioos:station:SCCF:18:1,2017-06-04T15:00:00Z,26.6955,-81.8138,1.464,3.41,1111122 
SCCF RECON,ioos:station:SCCF:18:1,2017-06-04T16:00:00Z,26.6955,-81.8138,1.517,3.87,1111122 
SCCF RECON,ioos:station:SCCF:18:1,2017-06-04T17:00:00Z,26.6955,-81.8138,1.559,4.23,1111122 
SCCF RECON,ioos:station:SCCF:18:1,2017-06-04T18:00:00Z,26.6955,-81.8138,1.582,4.91,1111122 
SCCF RECON,ioos:station:SCCF:18:1,2017-06-04T19:00:00Z,26.6955,-81.8138,1.55,4.17,1111122 
SCCF RECON,ioos:station:SCCF:18:1,2017-06-04T20:00:00Z,26.6955,-81.8138,1.462,4.56,1111122 
SCCF RECON,ioos:station:SCCF:18:1,2017-06-04T21:00:00Z,26.6955,-81.8138,1.394,4.55,1111122 
SCCF RECON,ioos:station:SCCF:18:1,2017-06-04T22:00:00Z,26.6955,-81.8138,1.36,4.41,1111122 
SCCF RECON,ioos:station:SCCF:18:1,2017-06-04T23:00:00Z,26.6955,-81.8138,1.302,4.52,1111122 
SCCF RECON,ioos:station:SCCF:18:1,2017-06-05T00:00:00Z,26.6955,-81.8138,1.258,4.21,1111122 
SCCF RECON,ioos:station:SCCF:18:1,2017-06-05T01:00:00Z,26.6955,-81.8138,1.229,4.48,1111122 
SCCF RECON,ioos:station:SCCF:18:1,2017-06-05T02:00:00Z,26.6955,-81.8138,1.248,4.22,1111122 
SCCF RECON,ioos:station:SCCF:18:1,2017-06-05T03:00:00Z,26.6955,-81.8138,1.317,4.42,1111122 
SCCF RECON,ioos:station:SCCF:18:1,2017-06-05T04:00:00Z,26.6955,-81.8138,1.384,3.81,1111122 
SCCF RECON,ioos:station:SCCF:18:1,2017-06-05T05:00:00Z,26.6955,-81.8138,1.426,3.87,1111122 
SCCF RECON,ioos:station:SCCF:18:1,2017-06-05T06:00:00Z,26.6955,-81.8138,1.457,3.8,1111122 
SCCF RECON,ioos:station:SCCF:18:1,2017-06-05T07:00:00Z,26.6955,-81.8138,1.489,3.88,1111122 
SCCF RECON,ioos:station:SCCF:18:1,2017-06-05T08:00:00Z,26.6955,-81.8138,1.501,3.65,1111122 
SCCF RECON,ioos:station:SCCF:18:1,2017-06-05T09:00:00Z,26.6955,-81.8138,1.459,4.36,1111122 
SCCF RECON,ioos:station:SCCF:18:1,2017-06-05T10:00:00Z,26.6955,-81.8138,1.397,3.94,1111122 
SCCF RECON,ioos:station:SCCF:18:1,2017-06-05T11:00:00Z,26.6955,-81.8138,1.352,3.57,1111122 
SCCF RECON,ioos:station:SCCF:18:1,2017-06-05T12:00:00Z,26.6955,-81.8138,1.342,3.38,1111122 
SCCF RECON,ioos:station:SCCF:18:1,2017-06-05T13:00:00Z,26.6955,-81.8138,1.376,3.13,1111122 
SCCF RECON,ioos:station:SCCF:18:1,2017-06-05T14:00:00Z,26.6955,-81.8138,1.448,3.52,1111122 
SCCF RECON,ioos:station:SCCF:18:1,2017-06-05T15:00:00Z,26.6955,-81.8138,1.524,3.47,1111122 
SCCF RECON,ioos:station:SCCF:18:1,2017-06-05T16:00:00Z,26.6955,-81.8138,1.576,3.53,1111122 
SCCF RECON,ioos:station:SCCF:18:1,2017-06-05T17:00:00Z,26.6955,-81.8138,1.63,3.35,1111122 
SCCF RECON,ioos:station:SCCF:18:1,2017-06-05T18:00:00Z,26.6955,-81.8138,1.685,4.76,1111122 
SCCF RECON,ioos:station:SCCF:18:1,2017-06-05T19:00:00Z,26.6955,-81.8138,1.71,3.72,1111122 
SCCF RECON,ioos:station:SCCF:18:1,2017-06-05T20:00:00Z,26.6955,-81.8138,1.61,4.87,1111122 
SCCF RECON,ioos:station:SCCF:18:1,2017-06-05T21:00:00Z,26.6955,-81.8138,1.51,4.39,1111122 
SCCF RECON,ioos:station:SCCF:18:1,2017-06-05T22:00:00Z,26.6955,-81.8138,1.43,4.13,1111122 
SCCF RECON,ioos:station:SCCF:18:1,2017-06-05T23:00:00Z,26.6955,-81.8138,1.378,4.0,1111122 
SCCF RECON,ioos:station:SCCF:18:1,2017-06-06T00:00:00Z,26.6955,-81.8138,1.332,3.86,1111122 
SCCF RECON,ioos:station:SCCF:18:1,2017-06-06T01:00:00Z,26.6955,-81.8138,1.277,3.7,1111122 
SCCF RECON,ioos:station:SCCF:18:1,2017-06-06T02:00:00Z,26.6955,-81.8138,1.237,3.52,1111122 
SCCF RECON,ioos:station:SCCF:18:1,2017-06-06T03:00:00Z,26.6955,-81.8138,1.246,3.32,1111122 
SCCF RECON,ioos:station:SCCF:18:1,2017-06-06T04:00:00Z,26.6955,-81.8138,1.303,3.47,1111122 
SCCF RECON,ioos:station:SCCF:18:1,2017-06-06T05:00:00Z,26.6955,-81.8138,1.372,3.27,1111122 
SCCF RECON,ioos:station:SCCF:18:1,2017-06-06T06:00:00Z,26.6955,-81.8138,1.419,3.13,1111122 
SCCF RECON,ioos:station:SCCF:18:1,2017-06-06T07:00:00Z,26.6955,-81.8138,1.455,3.63,1111122 
SCCF RECON,ioos:station:SCCF:18:1,2017-06-06T08:00:00Z,26.6955,-81.8138,1.484,3.42,1111122 
SCCF RECON,ioos:station:SCCF:18:1,2017-06-06T09:00:00Z,26.6955,-81.8138,1.461,3.33,1111122 
SCCF RECON,ioos:station:SCCF:18:1,2017-06-06T10:00:00Z,26.6955,-81.8138,1.446,3.32,1111122 
SCCF RECON,ioos:station:SCCF:18:1,2017-06-06T11:00:00Z,26.6955,-81.8138,1.409,3.38,1111122 
SCCF RECON,ioos:station:SCCF:18:1,2017-06-06T12:00:00Z,26.6955,-81.8138,1.361,3.47,1111122 
SCCF RECON,ioos:station:SCCF:18:1,2017-06-06T13:00:00Z,26.6955,-81.8138,1.393,3.14,1111122 
SCCF RECON,ioos:station:SCCF:18:1,2017-06-06T14:00:00Z,26.6955,-81.8138,1.457,3.59,1111122 
SCCF RECON,ioos:station:SCCF:18:1,2017-06-06T15:00:00Z,26.6955,-81.8138,1.551,3.69,1111122 
SCCF RECON,ioos:station:SCCF:18:1,2017-06-06T16:00:00Z,26.6955,-81.8138,1.608,3.73,1111122 
SCCF RECON,ioos:station:SCCF:18:1,2017-06-06T17:00:00Z,26.6955,-81.8138,1.68,4.5,1111122 
SCCF RECON,ioos:station:SCCF:18:1,2017-06-06T18:00:00Z,26.6955,-81.8138,1.715,5.28,1111122 
SCCF RECON,ioos:station:SCCF:18:1,2017-06-06T19:00:00Z,26.6955,-81.8138,1.75,4.46,1111122 
SCCF RECON,ioos:station:SCCF:18:1,2017-06-06T20:00:00Z,26.6955,-81.8138,1.816,5.03,1111122 
SCCF RECON,ioos:station:SCCF:18:1,2017-06-06T21:00:00Z,26.6955,-81.8138,1.86,6.25,1111122 
SCCF RECON,ioos:station:SCCF:18:1,2017-06-06T22:00:00Z,26.6955,-81.8138,1.759,6.37,1111122 
SCCF RECON,ioos:station:SCCF:18:1,2017-06-06T23:00:00Z,26.6955,-81.8138,1.649,4.85,1111122 
SCCF RECON,ioos:station:SCCF:18:1,2017-06-07T00:00:00Z,26.6955,-81.8138,1.56,4.43,1111122 
SCCF RECON,ioos:station:SCCF:18:1,2017-06-07T01:00:00Z,26.6955,-81.8138,1.511,4.63,1111122 
SCCF RECON,ioos:station:SCCF:18:1,2017-06-07T02:00:00Z,26.6955,-81.8138,1.475,4.56,1111122 
SCCF RECON,ioos:station:SCCF:18:1,2017-06-07T03:00:00Z,26.6955,-81.8138,1.428,4.23,1111122 
SCCF RECON,ioos:station:SCCF:18:1,2017-06-07T04:00:00Z,26.6955,-81.8138,1.417,4.27,1111122 
SCCF RECON,ioos:station:SCCF:18:1,2017-06-07T05:00:00Z,26.6955,-81.8138,1.455,3.59,1111122 
SCCF RECON,ioos:station:SCCF:18:1,2017-06-07T06:00:00Z,26.6955,-81.8138,1.52,3.34,1111122 
SCCF RECON,ioos:station:SCCF:18:1,2017-06-07T07:00:00Z,26.6955,-81.8138,1.59,3.24,1111122 
SCCF RECON,ioos:station:SCCF:18:1,2017-06-07T08:00:00Z,26.6955,-81.8138,1.618,3.56,1111122 
SCCF RECON,ioos:station:SCCF:18:1,2017-06-07T09:00:00Z,26.6955,-81.8138,1.64,3.67,1111122 
SCCF RECON,ioos:station:SCCF:18:1,2017-06-07T10:00:00Z,26.6955,-81.8138,1.678,3.29,1111122 
SCCF RECON,ioos:station:SCCF:18:1,2017-06-07T11:00:00Z,26.6955,-81.8138,1.69,3.49,1111122 
SCCF RECON,ioos:station:SCCF:18:1,2017-06-07T12:00:00Z,26.6955,-81.8138,1.626,4.06,1111122 
SCCF RECON,ioos:station:SCCF:18:1,2017-06-07T13:00:00Z,26.6955,-81.8138,1.567,3.86,1111122 
SCCF RECON,ioos:station:SCCF:18:1,2017-06-07T14:00:00Z,26.6955,-81.8138,1.616,3.17,1111122 
SCCF RECON,ioos:station:SCCF:18:1,2017-06-07T15:00:00Z,26.6955,-81.8138,1.717,3.4,1111122 
SCCF RECON,ioos:station:SCCF:18:1,2017-06-07T16:00:00Z,26.6955,-81.8138,1.819,3.66,1111122 
SCCF RECON,ioos:station:SCCF:18:1,2017-06-07T17:00:00Z,26.6955,-81.8138,1.861,3.63,1111122 
SCCF RECON,ioos:station:SCCF:18:1,2017-06-07T18:00:00Z,26.6955,-81.8138,2.009,4.17,1111122 
SCCF RECON,ioos:station:SCCF:18:1,2017-06-07T19:00:00Z,26.6955,-81.8138,2.039,4.03,1111122 
SCCF RECON,ioos:station:SCCF:18:1,2017-06-07T20:00:00Z,26.6955,-81.8138,2.057,4.22,1111122 
SCCF RECON,ioos:station:SCCF:18:1,2017-06-07T21:00:00Z,26.6955,-81.8138,1.997,4.52,1111122 
SCCF RECON,ioos:station:SCCF:18:1,2017-06-07T22:00:00Z,26.6955,-81.8138,1.925,4.83,1111122 
SCCF RECON,ioos:station:SCCF:18:1,2017-06-07T23:00:00Z,26.6955,-81.8138,1.86,4.75,1111122 
SCCF RECON,ioos:station:SCCF:18:1,2017-06-08T00:00:00Z,26.6955,-81.8138,1.79,4.17,1111122 
SCCF RECON,ioos:station:SCCF:18:1,2017-06-08T01:00:00Z,26.6955,-81.8138,1.739,4.27,1111122 
SCCF RECON,ioos:station:SCCF:18:1,2017-06-08T02:00:00Z,26.6955,-81.8138,1.671,4.31,1111122 
SCCF RECON,ioos:station:SCCF:18:1,2017-06-08T03:00:00Z,26.6955,-81.8138,1.627,4.09,1111122 
SCCF RECON,ioos:station:SCCF:18:1,2017-06-08T04:00:00Z,26.6955,-81.8138,1.589,3.9,1111122 
SCCF RECON,ioos:station:SCCF:18:1,2017-06-08T05:00:00Z,26.6955,-81.8138,1.581,3.55,1111122 
SCCF RECON,ioos:station:SCCF:18:1,2017-06-08T06:00:00Z,26.6955,-81.8138,1.631,3.43,1111122 
SCCF RECON,ioos:station:SCCF:18:1,2017-06-08T07:00:00Z,26.6955,-81.8138,1.693,2.92,1111122 
SCCF RECON,ioos:station:SCCF:18:1,2017-06-08T08:00:00Z,26.6955,-81.8138,1.735,3.01,1111122 
SCCF RECON,ioos:station:SCCF:18:1,2017-06-08T09:00:00Z,26.6955,-81.8138,1.737,3.49,1111122 
SCCF RECON,ioos:station:SCCF:18:1,2017-06-08T10:00:00Z,26.6955,-81.8138,1.722,3.55,1111122 
SCCF RECON,ioos:station:SCCF:18:1,2017-06-08T11:00:00Z,26.6955,-81.8138,1.7,3.32,1111122 
SCCF RECON,ioos:station:SCCF:18:1,2017-06-08T12:00:00Z,26.6955,-81.8138,1.673,3.38,1111122 
SCCF RECON,ioos:station:SCCF:18:1,2017-06-08T13:00:00Z,26.6955,-81.8138,1.687,3.45,1111122 
SCCF RECON,ioos:station:SCCF:18:1,2017-06-08T14:00:00Z,26.6955,-81.8138,1.701,3.39,1111122 
SCCF RECON,ioos:station:SCCF:18:1,2017-06-08T15:00:00Z,26.6955,-81.8138,1.729,3.45,1111122 
SCCF RECON,ioos:station:SCCF:18:1,2017-06-08T16:00:00Z,26.6955,-81.8138,1.83,3.43,1111122 
SCCF RECON,ioos:station:SCCF:18:1,2017-06-08T17:00:00Z,26.6955,-81.8138,1.87,3.27,1111122 
SCCF RECON,ioos:station:SCCF:18:1,2017-06-08T18:00:00Z,26.6955,-81.8138,1.917,3.2,1111122 
SCCF RECON,ioos:station:SCCF:18:1,2017-06-08T19:00:00Z,26.6955,-81.8138,1.927,3.24,1111122 
SCCF RECON,ioos:station:SCCF:18:1,2017-06-08T20:00:00Z,26.6955,-81.8138,1.893,3.5,1111122 
SCCF RECON,ioos:station:SCCF:18:1,2017-06-08T21:00:00Z,26.6955,-81.8138,1.831,3.76,1111122 
SCCF RECON,ioos:station:SCCF:18:1,2017-06-08T22:00:00Z,26.6955,-81.8138,1.777,3.8,1111122 
SCCF RECON,ioos:station:SCCF:18:1,2017-06-08T23:00:00Z,26.6955,-81.8138,1.721,3.96,1111122 
SCCF RECON,ioos:station:SCCF:18:1,2017-06-09T00:00:00Z,26.6955,-81.8138,1.674,4.17,1111122 
SCCF RECON,ioos:station:SCCF:18:1,2017-06-09T01:00:00Z,26.6955,-81.8138,1.627,3.98,1111122 
SCCF RECON,ioos:station:SCCF:18:1,2017-06-09T02:00:00Z,26.6955,-81.8138,1.572,3.66,1111122 
SCCF RECON,ioos:station:SCCF:18:1,2017-06-09T03:00:00Z,26.6955,-81.8138,1.523,3.41,1111122 
SCCF RECON,ioos:station:SCCF:18:1,2017-06-09T04:00:00Z,26.6955,-81.8138,1.48,3.27,1111122 
SCCF RECON,ioos:station:SCCF:18:1,2017-06-09T05:00:00Z,26.6955,-81.8138,1.452,3.39,1111122 
SCCF RECON,ioos:station:SCCF:18:1,2017-06-09T06:00:00Z,26.6955,-81.8138,1.448,3.09,1111122 
SCCF RECON,ioos:station:SCCF:18:1,2017-06-09T07:00:00Z,26.6955,-81.8138,1.438,3.03,1111122 
SCCF RECON,ioos:station:SCCF:18:1,2017-06-09T08:00:00Z,26.6955,-81.8138,1.478,2.7,1111122 
SCCF RECON,ioos:station:SCCF:18:1,2017-06-09T09:00:00Z,26.6955,-81.8138,1.535,2.48,1111122 
SCCF RECON,ioos:station:SCCF:18:1,2017-06-09T10:00:00Z,26.6955,-81.8138,1.529,2.71,1111122 
SCCF RECON,ioos:station:SCCF:18:1,2017-06-09T11:00:00Z,26.6955,-81.8138,1.48,2.85,1111122 
SCCF RECON,ioos:station:SCCF:18:1,2017-06-09T12:00:00Z,26.6955,-81.8138,1.44,2.83,1111122 
SCCF RECON,ioos:station:SCCF:18:1,2017-06-09T13:00:00Z,26.6955,-81.8138,1.42,2.78,1111122 
SCCF RECON,ioos:station:SCCF:18:1,2017-06-09T14:00:00Z,26.6955,-81.8138,1.418,2.97,1111122 
SCCF RECON,ioos:station:SCCF:18:1,2017-06-09T15:00:00Z,26.6955,-81.8138,1.413,3.01,1111122 
SCCF RECON,ioos:station:SCCF:18:1,2017-06-09T16:00:00Z,26.6955,-81.8138,1.449,2.92,1111122 
SCCF RECON,ioos:station:SCCF:18:1,2017-06-09T17:00:00Z,26.6955,-81.8138,1.541,2.74,1111122 
SCCF RECON,ioos:station:SCCF:18:1,2017-06-09T18:00:00Z,26.6955,-81.8138,1.616,2.62,1111122 
SCCF RECON,ioos:station:SCCF:18:1,2017-06-09T19:00:00Z,26.6955,-81.8138,1.673,2.78,1111122 
SCCF RECON,ioos:station:SCCF:18:1,2017-06-09T20:00:00Z,26.6955,-81.8138,1.693,2.63,1111122 
SCCF RECON,ioos:station:SCCF:18:1,2017-06-09T21:00:00Z,26.6955,-81.8138,1.683,2.65,1111122 
SCCF RECON,ioos:station:SCCF:18:1,2017-06-09T22:00:00Z,26.6955,-81.8138,1.619,3.21,1111122 
SCCF RECON,ioos:station:SCCF:18:1,2017-06-09T23:00:00Z,26.6955,-81.8138,1.555,3.03,1111122 
SCCF RECON,ioos:station:SCCF:18:1,2017-06-10T00:00:00Z,26.6955,-81.8138,1.503,3.21,1111122 
SCCF RECON,ioos:station:SCCF:18:1,2017-06-10T01:00:00Z,26.6955,-81.8138,1.451,3.42,1111122 
SCCF RECON,ioos:station:SCCF:18:1,2017-06-10T02:00:00Z,26.6955,-81.8138,1.4,3.56,1111122 
SCCF RECON,ioos:station:SCCF:18:1,2017-06-10T03:00:00Z,26.6955,-81.8138,1.349,3.36,1111122 
SCCF RECON,ioos:station:SCCF:18:1,2017-06-10T04:00:00Z,26.6955,-81.8138,1.301,3.4,1111122 
SCCF RECON,ioos:station:SCCF:18:1,2017-06-10T05:00:00Z,26.6955,-81.8138,1.299,3.26,1111122 
SCCF RECON,ioos:station:SCCF:18:1,2017-06-10T06:00:00Z,26.6955,-81.8138,1.29,3.06,1111122 
SCCF RECON,ioos:station:SCCF:18:1,2017-06-10T07:00:00Z,26.6955,-81.8138,1.379,3.02,1111122 
SCCF RECON,ioos:station:SCCF:18:1,2017-06-10T08:00:00Z,26.6955,-81.8138,1.457,2.89,1111122 
SCCF RECON,ioos:station:SCCF:18:1,2017-06-10T09:00:00Z,26.6955,-81.8138,1.521,3.06,1111122 
SCCF RECON,ioos:station:SCCF:18:1,2017-06-10T10:00:00Z,26.6955,-81.8138,1.557,3.01,1111122 
SCCF RECON,ioos:station:SCCF:18:1,2017-06-10T11:00:00Z,26.6955,-81.8138,1.564,3.06,1111122 
SCCF RECON,ioos:station:SCCF:18:1,2017-06-10T12:00:00Z,26.6955,-81.8138,1.555,2.98,1111122 
SCCF RECON,ioos:station:SCCF:18:1,2017-06-10T13:00:00Z,26.6955,-81.8138,1.526,3.08,1111122 
SCCF RECON,ioos:station:SCCF:18:1,2017-06-10T14:00:00Z,26.6955,-81.8138,1.494,3.31,1111122 
SCCF RECON,ioos:station:SCCF:18:1,2017-06-10T15:00:00Z,26.6955,-81.8138,1.48,3.46,1111122 
SCCF RECON,ioos:station:SCCF:18:1,2017-06-10T16:00:00Z,26.6955,-81.8138,1.53,3.16,1111122 
SCCF RECON,ioos:station:SCCF:18:1,2017-06-10T17:00:00Z,26.6955,-81.8138,1.626,3.07,1111122 
SCCF RECON,ioos:station:SCCF:18:1,2017-06-10T18:00:00Z,26.6955,-81.8138,1.677,3.11,1111122 
SCCF RECON,ioos:station:SCCF:18:1,2017-06-10T19:00:00Z,26.6955,-81.8138,1.713,3.18,1111122 
SCCF RECON,ioos:station:SCCF:18:1,2017-06-10T20:00:00Z,26.6955,-81.8138,1.728,3.18,1111122 
SCCF RECON,ioos:station:SCCF:18:1,2017-06-10T21:00:00Z,26.6955,-81.8138,1.732,3.29,1111122 
SCCF RECON,ioos:station:SCCF:18:1,2017-06-10T22:00:00Z,26.6955,-81.8138,1.679,3.5,1111122 
SCCF RECON,ioos:station:SCCF:18:1,2017-06-10T23:00:00Z,26.6955,-81.8138,1.601,3.91,1111122 
SCCF RECON,ioos:station:SCCF:18:1,2017-06-11T00:00:00Z,26.6955,-81.8138,1.53,3.58,1111122 
SCCF RECON,ioos:station:SCCF:18:1,2017-06-11T01:00:00Z,26.6955,-81.8138,1.476,3.39,1111122 
SCCF RECON,ioos:station:SCCF:18:1,2017-06-11T02:00:00Z,26.6955,-81.8138,1.435,3.48,1111122 
SCCF RECON,ioos:station:SCCF:18:1,2017-06-11T03:00:00Z,26.6955,-81.8138,1.39,3.52,1111122 
SCCF RECON,ioos:station:SCCF:18:1,2017-06-11T04:00:00Z,26.6955,-81.8138,1.338,3.46,1111122 
SCCF RECON,ioos:station:SCCF:18:1,2017-06-11T05:00:00Z,26.6955,-81.8138,1.287,3.35,1111122 
SCCF RECON,ioos:station:SCCF:18:1,2017-06-11T06:00:00Z,26.6955,-81.8138,1.267,3.28,1111122 
SCCF RECON,ioos:station:SCCF:18:1,2017-06-11T07:00:00Z,26.6955,-81.8138,1.286,3.2,1111122 
SCCF RECON,ioos:station:SCCF:18:1,2017-06-11T08:00:00Z,26.6955,-81.8138,1.358,2.99,1111122 
SCCF RECON,ioos:station:SCCF:18:1,2017-06-11T09:00:00Z,26.6955,-81.8138,1.438,2.96,1111122 
SCCF RECON,ioos:station:SCCF:18:1,2017-06-11T10:00:00Z,26.6955,-81.8138,1.476,3.08,1111122 
SCCF RECON,ioos:station:SCCF:18:1,2017-06-11T11:00:00Z,26.6955,-81.8138,1.484,3.5,1111122 
SCCF RECON,ioos:station:SCCF:18:1,2017-06-11T12:00:00Z,26.6955,-81.8138,1.51,3.18,1111122 
SCCF RECON,ioos:station:SCCF:18:1,2017-06-11T13:00:00Z,26.6955,-81.8138,1.499,3.28,1111122 
SCCF RECON,ioos:station:SCCF:18:1,2017-06-11T14:00:00Z,26.6955,-81.8138,1.459,3.34,1111122 
SCCF RECON,ioos:station:SCCF:18:1,2017-06-11T15:00:00Z,26.6955,-81.8138,1.43,3.28,1111122 
SCCF RECON,ioos:station:SCCF:18:1,2017-06-11T16:00:00Z,26.6955,-81.8138,1.421,3.32,1111122 
SCCF RECON,ioos:station:SCCF:18:1,2017-06-11T17:00:00Z,26.6955,-81.8138,1.466,3.05,1111122 
SCCF RECON,ioos:station:SCCF:18:1,2017-06-11T18:00:00Z,26.6955,-81.8138,1.57,3.0,1111122 
SCCF RECON,ioos:station:SCCF:18:1,2017-06-11T19:00:00Z,26.6955,-81.8138,1.644,3.09,1111122 